Погода в Гапкине

Россия / Ростовская область     47°43′03″N   41°25′07″E
В апреле 2022 года жителям России запретили посещать сайт meteo.paraplan.net по решению Генеральной прокуратуры. Аудитория сайта уменьшилась в 10 раз. Владельцы сайта не видят смысла в поддержке погодного сервера в таких условиях. Сайт будет закрыт в октябре.
темп.,
°C
ветер,
м/с
пор.,
м/с
влажн.,
%
обл.,
%
осадки,
мм/ч
давл.,
гПа
погр.,
м
3 октября, пн
пн300:00+21юв81748100 0.0 1002616
03:00+20ююв71263100 0.0 1002624
06:00+15зсз71282100 1.8 1004677
09:00+16з89628 1.8 10091082
12:00+18зюз89431 0.0 10111544
15:00+19юз78385 0.0 10122021
18:00+16ююз334858 0.0 101433
21:00+14юз235977 0.0 101567
4 октября, вт
вт400:00+13ююз1166100 0.0 101511
03:00+12вюв2270100 0.0 101511
06:00+12юв3467100 0.0 101678
09:00+17юв455099 0.0 1017419
12:00+20юв554378 0.0 10161307
15:00+19юв665298 0.0 1017850
18:00+15юв336946 0.0 101861
21:00+14вюв348380 0.0 101961
5 октября, ср
ср500:00+13юв229140 0.0 101918
03:00+13ююв22925 0.0 101912
06:00+13юз119382 0.0 102010
09:00+15зсз1182100 0.0 1021209
12:00+17зсз3359100 0.0 1022630
15:00+19зсз454527 0.0 10211286
18:00+17з364913 0.0 1022116
21:00+14зсз37481 0.0 1023124
6 октября, чт
чт600:00+12з35550 0.0 102381
03:00+11сз34625 0.0 102459
06:00+9сз37771 0.0 1025143
09:00+12сз46585 0.0 1025722
12:00+16сз46425 0.0 10251345
15:00+17сз564036 0.0 10241781
18:00+14сз22505 0.0 102519
21:00+12ссз33605 0.0 102630
7 октября, пт
пт700:00+11юз11630 0.0 102610
03:00+10зюз22660 0.0 102617
06:00+10юз22680 0.0 102617
09:00+15юз35545 0.0 1026359
12:00+19зюз454232 0.0 10251223
15:00+21з34385 0.0 10231547
18:00+17зюз22485 0.0 102412
21:00+15ссз11550 0.0 102410